Big Delta, AK

1:47 AM AKDT on June 25, 2017 (GMT -0800)
Allen Army Air Field

Weather History for PABI - January, 2013

Change the Weather History Date:

Thursday, January 3, 2013

  Actual Average Record
Temperature  
Mean Temperature 27 °F -  
Max Temperature 36 °F 2 °F 46 °F (2005)
Min Temperature 18 °F -7 °F -45 °F (2009)
Degree Days  
Heating Degree Days 38    
Moisture  
Dew Point 10 °F    
Average Humidity 54    
Maximum Humidity 60    
Minimum Humidity 35    
Precipitation  
Precipitation 0.00 in - - ()
Sea Level Pressure  
Sea Level Pressure 29.70 in    
Wind  
Wind Speed 21 mph (ESE)    
Max Wind Speed 31 mph    
Max Gust Speed 41 mph    
Visibility 10 miles    
Events      
Averages and records for this station are not official NWS values.
T = Trace of Precipitation, MM = Missing Value Source: NWS Daily Summary

Daily Weather History Graph

Daily Weather History Graph

Search for Another Location

Airport or City:

Trip Planner

Search our weather history database for the weather conditions in past years. The results will help you decide how hot, cold, wet, or windy it might be!

Date:

Astronomy

Jan. 03, 2013 Rise Set
Actual Time 10:29 AM AKST 3:06 PM AKST
Civil Twilight 9:15 AM AKST 4:20 PM AKST
Nautical Twilight 8:08 AM AKST 5:27 PM AKST
Astronomical Twilight 7:09 AM AKST 6:26 PM AKST
Moon No Moon Rise 11:06 AM AKST (1/3)
Length of Visible Light 7h 05m
Length of Day
4h 37m
Waning Gibbous, 64% of the Moon is Illuminated
Jan 3
Waning Gibbous
Jan 4
Last Quarter
Jan 11
New
Jan 18
First Quarter
Jan 26
Full

Hourly Weather History & Observations

Time (AKST) Temp. Windchill Dew Point Humidity Pressure Visibility Wind Dir Wind Speed Gust Speed Precip Events Conditions
12:53 AM 36.0 °F 24.7 °F 14.0 °F 41% 29.62 in 10.0 mi South 21.9 mph 36.8 mph N/A   Clear
1:53 AM 35.1 °F 23.3 °F 14.0 °F 42% 29.63 in 10.0 mi South 23.0 mph 32.2 mph N/A   Clear
2:35 AM 28.4 °F 18.0 °F 14.0 °F 55% 29.59 in 10.0 mi ESE 12.7 mph - N/A   Clear
2:53 AM 30.9 °F 20.7 °F 14.0 °F 50% 29.66 in 10.0 mi SE 13.8 mph - N/A   Clear
3:53 AM 26.1 °F 13.6 °F 12.0 °F 55% 29.66 in 10.0 mi ESE 16.1 mph - N/A   Clear
4:53 AM 25.0 °F 11.7 °F 10.9 °F 55% 29.66 in 10.0 mi ESE 17.3 mph 26.5 mph N/A   Clear
5:53 AM 25.0 °F 10.2 °F 10.9 °F 55% 29.67 in 10.0 mi ESE 21.9 mph 31.1 mph N/A   Mostly Cloudy
6:53 AM 23.0 °F 8.0 °F 10.9 °F 60% 29.67 in 10.0 mi ESE 20.7 mph 26.5 mph N/A   Mostly Cloudy
7:53 AM 23.0 °F 9.2 °F 10.0 °F 58% 29.69 in 10.0 mi ESE 17.3 mph - N/A   Partly Cloudy
8:53 AM 21.9 °F 7.3 °F 10.0 °F 60% 29.70 in 10.0 mi ESE 18.4 mph - N/A   Partly Cloudy
9:53 AM 21.9 °F 6.5 °F 10.0 °F 60% 29.71 in 10.0 mi ESE 20.7 mph - N/A   Scattered Clouds
10:53 AM 21.9 °F 5.8 °F 10.0 °F 60% 29.72 in 10.0 mi ESE 23.0 mph 27.6 mph N/A   Scattered Clouds
11:53 AM 21.9 °F 5.8 °F 9.0 °F 58% 29.72 in 10.0 mi ESE 23.0 mph 31.1 mph N/A   Mostly Cloudy
12:53 PM 21.9 °F 4.8 °F 9.0 °F 58% 29.71 in 10.0 mi ESE 26.5 mph 35.7 mph N/A   Mostly Cloudy
1:53 PM 21.9 °F 5.5 °F 9.0 °F 58% 29.72 in 10.0 mi ESE 24.2 mph 32.2 mph N/A   Mostly Cloudy
2:53 PM 23.0 °F 6.6 °F 9.0 °F 55% 29.72 in 10.0 mi ESE 25.3 mph 33.4 mph N/A   Overcast
3:53 PM 21.9 °F 5.1 °F 9.0 °F 58% 29.73 in 10.0 mi ESE 25.3 mph 33.4 mph N/A   Overcast
4:53 PM 21.9 °F 4.5 °F 9.0 °F 58% 29.73 in 10.0 mi ESE 27.6 mph 35.7 mph N/A   Overcast
5:53 PM 21.9 °F 4.5 °F 8.1 °F 55% 29.73 in 10.0 mi ESE 27.6 mph 35.7 mph N/A   Overcast
6:53 PM 21.0 °F 3.6 °F 8.1 °F 57% 29.73 in 10.0 mi ESE 26.5 mph 35.7 mph N/A   Overcast
7:53 PM 19.9 °F 1.3 °F 7.0 °F 57% 29.73 in 10.0 mi ESE 29.9 mph 35.7 mph N/A   Mostly Cloudy
8:53 PM 19.0 °F 0.0 °F 7.0 °F 59% 29.72 in 10.0 mi ESE 29.9 mph 36.8 mph N/A   Mostly Cloudy
9:53 PM 19.0 °F -0.3 °F 7.0 °F 59% 29.72 in 10.0 mi ESE 31.1 mph 41.4 mph N/A   Clear
10:53 PM 18.0 °F -1.1 °F 6.1 °F 60% 29.73 in 10.0 mi East 28.8 mph 38.0 mph N/A   Clear
11:53 PM 18.0 °F -1.1 °F 6.1 °F 60% 29.73 in 10.0 mi East 28.8 mph 40.3 mph N/A   Clear